This is the latest recevied weather packets stored in our database for station/object WX4FUN-13. If no packets are shown the sender has not sent any weather packets the latest 10 day(s).
| Time | Temp. | Humidity | Pressure | Rain* | Wind** | Luminosity | Snow |
|---|---|---|---|---|---|---|---|
| 1777839529 | 11.67° C | 39% | 1009.3 hPa | 0.51 mm | - | 274 W/m² | - |
| 1777838929 | 12.78° C | 37% | 1009.4 hPa | 0.51 mm | - | 190 W/m² | - |
| 1777838331 | 12.22° C | 37% | 1009.4 hPa | 0.25 mm | - | 237 W/m² | - |
| 1777837727 | 12.78° C | 37% | 1009.3 hPa | 0.25 mm | - | 208 W/m² | - |
| 1777837128 | 12.22° C | 38% | 1009.3 hPa | 0.25 mm | - | 268 W/m² | - |
| 1777836529 | 13.33° C | 36% | 1009.4 hPa | 0.25 mm | - | 205 W/m² | - |
| 1777835929 | 12.78° C | 36% | 1009.3 hPa | 0 mm | - | 288 W/m² | - |
| 1777835329 | 13.33° C | 36% | 1009.4 hPa | 0 mm | - | 322 W/m² | - |
| 1777834730 | 12.78° C | 37% | 1009.6 hPa | 0 mm | - | 932 W/m² | - |
| 1777834128 | 11.67° C | 39% | 1009.5 hPa | 0 mm | - | 261 W/m² | - |
| 1777833527 | 11.67° C | 38% | 1009.3 hPa | 0 mm | - | 272 W/m² | - |
| 1777832929 | 12.22° C | 39% | 1009.4 hPa | 0 mm | - | 264 W/m² | - |
| 1777832326 | 12.22° C | 38% | 1009.3 hPa | 0 mm | - | 234 W/m² | - |
| 1777831726 | 12.22° C | 38% | 1009.5 hPa | 0 mm | - | 585 W/m² | - |
| 1777831126 | 12.78° C | 40% | 1009.4 hPa | 0 mm | - | 1029 W/m² | - |
| 1777830525 | 12.22° C | 39% | 1009.5 hPa | 0 mm | - | 958 W/m² | - |
| 1777829925 | 12.22° C | 40% | 1009.7 hPa | 0 mm | - | 977 W/m² | - |
| 1777829322 | 12.78° C | 40% | 1009.6 hPa | 0 mm | - | 490 W/m² | - |
| 1777828724 | 12.22° C | 41% | 1009.6 hPa | 0 mm | - | 838 W/m² | - |
| 1777828124 | 11.67° C | 42% | 1009.4 hPa | 0 mm | - | 523 W/m² | - |
| 1777827522 | 11.11° C | 42% | 1009.3 hPa | 0 mm | - | 464 W/m² | - |
| 1777826921 | 11.11° C | 42% | 1009.3 hPa | 0 mm | - | 308 W/m² | - |
| 1777826319 | 11.11° C | 42% | 1009.2 hPa | 0 mm | - | 173 W/m² | - |
| 1777825718 | 11.11° C | 42% | 1009.3 hPa | 0 mm | - | 309 W/m² | - |
| 1777825118 | 11.11° C | 42% | 1008.9 hPa | 0 mm | - | 148 W/m² | - |
* Rain latest hour (hover to see other rain measurements)
** Current wind speed in m/s (hover to see current wind gust speed)